BZN26 KPWM-KBTV

Flight info

Callsign BZN26
Flight time 0h 40m
Altitude 20000
Route HSKEL3 HSKEL GRNMT BTV
Aircraft B738/M-SDE2E3FGHIRWXY/LB1

Departure

Time 2026-05-08 02:34
Airport Portland International Jetport (KPWM)

Arrival

Time 2026-05-08 03:15
Airport Patrick Leahy Burlington International Airport (KBTV)
Time Latitude Longitude Altitude Speed Heading
2026-05-08 01:58 43.64676 -70.31119 67 ft 0 kts
2026-05-08 02:12 43.64675 -70.31119 67 ft 0 kts
2026-05-08 02:26 43.64667 -70.31121 67 ft 2 kts
2026-05-08 02:26 43.64651 -70.31124 64 ft 2 kts
2026-05-08 02:27 43.64634 -70.31126 59 ft 2 kts
2026-05-08 02:27 43.64618 -70.31131 64 ft 2 kts 32°
2026-05-08 02:27 43.64610 -70.31144 58 ft 1 kts 91°
2026-05-08 02:27 43.64610 -70.31150 58 ft 0 kts 96°
2026-05-08 02:28 43.64609 -70.31139 65 ft 7 kts 96°
2026-05-08 02:28 43.64595 -70.31000 66 ft 17 kts 107°
2026-05-08 02:28 43.64579 -70.30838 62 ft 17 kts 95°
2026-05-08 02:29 43.64567 -70.30681 62 ft 16 kts 96°
2026-05-08 02:29 43.64558 -70.30525 59 ft 17 kts 94°
2026-05-08 02:29 43.64576 -70.30358 53 ft 18 kts 86°
2026-05-08 02:29 43.64584 -70.30195 56 ft 17 kts 97°
2026-05-08 02:30 43.64573 -70.30038 47 ft 16 kts 95°
2026-05-08 02:30 43.64566 -70.29957 54 ft 7 kts 104°
2026-05-08 02:30 43.64529 -70.29921 49 ft 7 kts 171°
2026-05-08 02:30 43.64481 -70.29915 51 ft 7 kts 179°
2026-05-08 02:31 43.64422 -70.29945 54 ft 11 kts 233°
2026-05-08 02:31 43.64413 -70.29997 55 ft 0 kts 270°
2026-05-08 02:33 43.64414 -70.30034 49 ft 14 kts 274°
2026-05-08 02:33 43.64431 -70.30287 54 ft 40 kts 275°
2026-05-08 02:33 43.64483 -70.31049 66 ft 118 kts 275°
2026-05-08 02:34 43.64580 -70.32483 201 ft 174 kts 276°
2026-05-08 02:34 43.64730 -70.34114 1186 ft 166 kts 281°
2026-05-08 02:34 43.64896 -70.35549 2604 ft 138 kts 282°
2026-05-08 02:34 43.65046 -70.36800 3397 ft 126 kts 282°
2026-05-08 02:35 43.65192 -70.37974 3677 ft 129 kts 283°
2026-05-08 02:35 43.65428 -70.39199 4145 ft 133 kts 289°
2026-05-08 02:35 43.65753 -70.40376 4766 ft 133 kts 291°
2026-05-08 02:35 43.66111 -70.41766 4861 ft 173 kts 284°
2026-05-08 02:36 43.66370 -70.43496 5116 ft 196 kts 281°
2026-05-08 02:36 43.66643 -70.45455 5347 ft 218 kts 281°
2026-05-08 02:36 43.66947 -70.47550 5885 ft 226 kts 281°
2026-05-08 02:36 43.67269 -70.49684 6557 ft 228 kts 281°
2026-05-08 02:37 43.67602 -70.51833 7217 ft 230 kts 282°
2026-05-08 02:37 43.67946 -70.54002 7885 ft 232 kts 282°
2026-05-08 02:37 43.68298 -70.56190 8545 ft 235 kts 282°
2026-05-08 02:37 43.68652 -70.58373 9189 ft 237 kts 282°
2026-05-08 02:38 43.69026 -70.60659 9735 ft 259 kts 282°
2026-05-08 02:38 43.69449 -70.63242 9852 ft 292 kts 282°
2026-05-08 02:38 43.69928 -70.66167 9907 ft 332 kts 282°
2026-05-08 02:38 43.70467 -70.69447 10020 ft 367 kts 282°
2026-05-08 02:39 43.71053 -70.73014 10477 ft 386 kts 282°
2026-05-08 02:39 43.71585 -70.76561 11786 ft 354 kts 276°
2026-05-08 02:39 43.71644 -70.79792 12862 ft 326 kts 265°
2026-05-08 02:39 43.71369 -70.82813 13837 ft 308 kts 259°
2026-05-08 02:40 43.70872 -70.85652 14766 ft 303 kts 252°
2026-05-08 02:40 43.70135 -70.88355 15728 ft 298 kts 248°
2026-05-08 02:40 43.69369 -70.90993 16715 ft 293 kts 248°
2026-05-08 02:40 43.68618 -70.93584 17722 ft 287 kts 247°
2026-05-08 02:41 43.67889 -70.96116 18647 ft 282 kts 247°
2026-05-08 02:41 43.67151 -70.98684 18987 ft 293 kts 247°
2026-05-08 02:41 43.66399 -71.01398 19021 ft 314 kts 251°
2026-05-08 02:41 43.65998 -71.04466 19053 ft 336 kts 262°
2026-05-08 02:42 43.65974 -71.07753 19034 ft 359 kts 270°
2026-05-08 02:42 43.66438 -71.11255 19054 ft 379 kts 277°
2026-05-08 02:42 43.67077 -71.14871 19050 ft 395 kts 278°
2026-05-08 02:42 43.67768 -71.18609 19040 ft 408 kts 279°
2026-05-08 02:43 43.68478 -71.22398 19022 ft 401 kts 279°
2026-05-08 02:43 43.69166 -71.26074 19023 ft 391 kts 278°
2026-05-08 02:43 43.69832 -71.29694 19028 ft 388 kts 278°
2026-05-08 02:43 43.70486 -71.33321 19033 ft 389 kts 278°
2026-05-08 02:44 43.71135 -71.36959 19040 ft 390 kts 278°
2026-05-08 02:44 43.71780 -71.40602 19045 ft 391 kts 278°
2026-05-08 02:44 43.72423 -71.44250 19047 ft 391 kts 278°
2026-05-08 02:44 43.73067 -71.47910 19045 ft 392 kts 278°
2026-05-08 02:45 43.73711 -71.51578 19368 ft 390 kts 278°
2026-05-08 02:45 43.74350 -71.55219 19797 ft 392 kts 278°
2026-05-08 02:45 43.74991 -71.58883 19830 ft 392 kts 278°
2026-05-08 02:45 43.75625 -71.62524 19834 ft 395 kts 278°
2026-05-08 02:46 43.76267 -71.66213 19841 ft 395 kts 278°
2026-05-08 02:46 43.76910 -71.69912 19836 ft 395 kts 278°
2026-05-08 02:46 43.77551 -71.73605 19837 ft 395 kts 278°
2026-05-08 02:46 43.78192 -71.77301 19860 ft 395 kts 278°
2026-05-08 02:47 43.78830 -71.80999 19848 ft 395 kts 278°
2026-05-08 02:47 43.79466 -71.84689 19852 ft 394 kts 278°
2026-05-08 02:47 43.80101 -71.88381 19842 ft 394 kts 278°
2026-05-08 02:47 43.80736 -71.92074 19846 ft 394 kts 278°
2026-05-08 02:48 43.81370 -71.95772 19843 ft 395 kts 278°
2026-05-08 02:48 43.81999 -71.99486 19844 ft 395 kts 277°
2026-05-08 02:48 43.82616 -72.03191 19838 ft 396 kts 277°
2026-05-08 02:48 43.83242 -72.06902 19849 ft 396 kts 278°
2026-05-08 02:49 43.83872 -72.10619 19877 ft 397 kts 278°
2026-05-08 02:49 43.84506 -72.14346 19850 ft 398 kts 278°
2026-05-08 02:49 43.85131 -72.18028 19851 ft 397 kts 278°
2026-05-08 02:49 43.85761 -72.21753 19849 ft 397 kts 278°
2026-05-08 02:50 43.86389 -72.25475 19858 ft 396 kts 278°
2026-05-08 02:50 43.87015 -72.29188 19861 ft 395 kts 278°
2026-05-08 02:50 43.87638 -72.32898 19863 ft 395 kts 278°
2026-05-08 02:50 43.88259 -72.36610 19861 ft 395 kts 278°
2026-05-08 02:51 43.88879 -72.40321 19875 ft 395 kts 278°
2026-05-08 02:51 43.89498 -72.44032 19861 ft 395 kts 278°
2026-05-08 02:51 43.90118 -72.47753 19882 ft 396 kts 278°
2026-05-08 02:51 43.90736 -72.51470 19883 ft 396 kts 278°
2026-05-08 02:52 43.91352 -72.55195 19899 ft 397 kts 278°
2026-05-08 02:52 43.91969 -72.58929 19891 ft 397 kts 278°
2026-05-08 02:52 43.92587 -72.62667 19886 ft 397 kts 278°
2026-05-08 02:52 43.93196 -72.66354 19886 ft 398 kts 278°
2026-05-08 02:53 43.93813 -72.70097 19890 ft 398 kts 278°
2026-05-08 02:53 43.94430 -72.73843 19883 ft 398 kts 278°
2026-05-08 02:53 43.95044 -72.77586 19885 ft 398 kts 278°
2026-05-08 02:53 43.95655 -72.81335 19902 ft 398 kts 278°
2026-05-08 02:54 43.96339 -72.85076 19867 ft 402 kts 285°
2026-05-08 02:54 43.97728 -72.88476 19893 ft 412 kts 303°
2026-05-08 02:54 43.99819 -72.91260 19891 ft 424 kts 317°
2026-05-08 02:54 44.02447 -72.93240 19891 ft 438 kts 334°
2026-05-08 02:55 44.05474 -72.94154 19918 ft 450 kts 350°
2026-05-08 02:55 44.11579 -72.92590 19025 ft 447 kts 13°
2026-05-08 02:55 44.14519 -72.91062 18002 ft 457 kts 23°
2026-05-08 02:56 44.17129 -72.88494 17249 ft 458 kts 38°
2026-05-08 02:56 44.19417 -72.85661 17512 ft 420 kts 39°
2026-05-08 02:56 44.21470 -72.83067 17776 ft 386 kts 39°
2026-05-08 02:56 44.23372 -72.80635 17968 ft 358 kts 39°
2026-05-08 02:57 44.25174 -72.78313 17541 ft 350 kts 39°
2026-05-08 02:57 44.27063 -72.76169 16702 ft 349 kts 23°
2026-05-08 02:57 44.29342 -72.75268 15880 ft 337 kts 355°
2026-05-08 02:57 44.31572 -72.75906 15057 ft 323 kts 327°
2026-05-08 02:58 44.33248 -72.77857 14238 ft 311 kts 301°
2026-05-08 02:58 44.34100 -72.80519 13385 ft 292 kts 281°
2026-05-08 02:58 44.34195 -72.83282 12446 ft 280 kts 264°
2026-05-08 02:58 44.33857 -72.85918 11509 ft 272 kts 258°
2026-05-08 02:59 44.33428 -72.88457 10617 ft 266 kts 256°
2026-05-08 02:59 44.32770 -72.90819 9761 ft 263 kts 249°
2026-05-08 02:59 44.32459 -72.93276 8776 ft 258 kts 279°
2026-05-08 02:59 44.33198 -72.95496 7856 ft 256 kts 309°
2026-05-08 03:00 44.34465 -72.97218 7034 ft 250 kts 314°
2026-05-08 03:00 44.35671 -72.98723 6965 ft 216 kts 323°
2026-05-08 03:00 44.36980 -72.99655 6233 ft 214 kts 330°
2026-05-08 03:00 44.38261 -73.00679 5119 ft 215 kts 318°
2026-05-08 03:01 44.39199 -73.02243 4126 ft 213 kts 308°
2026-05-08 03:01 44.40164 -73.03757 3460 ft 202 kts 309°
2026-05-08 03:01 44.41040 -73.05228 2863 ft 191 kts 312°
2026-05-08 03:01 44.41892 -73.06608 2265 ft 185 kts 313°
2026-05-08 03:02 44.42737 -73.07819 2042 ft 167 kts 308°
2026-05-08 03:02 44.43509 -73.09141 1792 ft 180 kts 308°
2026-05-08 03:02 44.44321 -73.10509 1339 ft 189 kts 307°
2026-05-08 03:02 44.45196 -73.11912 873 ft 191 kts 310°
2026-05-08 03:03 44.46062 -73.13299 584 ft 188 kts 316°
2026-05-08 03:03 44.46873 -73.14651 360 ft 172 kts 313°
2026-05-08 03:03 44.47647 -73.15847 550 ft 163 kts 314°
2026-05-08 03:03 44.48453 -73.16993 911 ft 175 kts 316°
2026-05-08 03:04 44.49350 -73.18239 1384 ft 183 kts 309°
2026-05-08 03:04 44.50004 -73.19700 2170 ft 176 kts 290°
2026-05-08 03:04 44.50236 -73.21447 2613 ft 188 kts 270°
2026-05-08 03:04 44.50052 -73.23282 3223 ft 190 kts 257°
2026-05-08 03:05 44.49554 -73.24966 3977 ft 186 kts 242°
2026-05-08 03:05 44.48737 -73.26338 4766 ft 184 kts 226°
2026-05-08 03:05 44.47637 -73.27257 5366 ft 194 kts 205°
2026-05-08 03:05 44.46225 -73.27502 5832 ft 221 kts 180°
2026-05-08 03:06 44.44687 -73.26953 6654 ft 233 kts 159°
2026-05-08 03:06 44.43305 -73.25747 7592 ft 238 kts 142°
2026-05-08 03:06 44.42046 -73.24218 8445 ft 243 kts 143°
2026-05-08 03:06 44.40727 -73.22710 9315 ft 247 kts 142°
2026-05-08 03:07 44.39423 -73.21004 9850 ft 269 kts 137°
2026-05-08 03:07 44.38085 -73.19017 10272 ft 292 kts 134°
2026-05-08 03:07 44.36698 -73.16794 10243 ft 311 kts 132°
2026-05-08 03:07 44.35301 -73.14507 10472 ft 305 kts 133°
2026-05-08 03:08 44.33921 -73.12320 10793 ft 298 kts 134°
2026-05-08 03:08 44.32560 -73.10123 10853 ft 301 kts 133°
2026-05-08 03:08 44.31167 -73.07887 10767 ft 310 kts 135°
2026-05-08 03:08 44.29692 -73.05679 10709 ft 308 kts 135°
2026-05-08 03:09 44.28291 -73.03473 10534 ft 306 kts 131°
2026-05-08 03:09 44.27287 -73.00760 9591 ft 330 kts 102°
2026-05-08 03:09 44.27329 -72.97594 9043 ft 329 kts 73°
2026-05-08 03:09 44.28239 -72.94614 8049 ft 342 kts 57°
2026-05-08 03:10 44.29721 -72.92034 7334 ft 341 kts 32°
2026-05-08 03:10 44.31874 -72.91114 6799 ft 316 kts 351°
2026-05-08 03:10 44.33752 -72.92215 6243 ft 280 kts 310°
2026-05-08 03:10 44.34781 -72.94362 5637 ft 258 kts 303°
2026-05-08 03:11 44.35802 -72.96418 4632 ft 259 kts 304°
2026-05-08 03:11 44.36820 -72.98452 3752 ft 254 kts 307°
2026-05-08 03:11 44.37864 -73.00339 3187 ft 242 kts 311°
2026-05-08 03:11 44.39013 -73.01951 2869 ft 223 kts 313°
2026-05-08 03:12 44.40005 -73.03502 2512 ft 210 kts 309°
2026-05-08 03:12 44.40973 -73.04987 2211 ft 202 kts 310°
2026-05-08 03:12 44.41803 -73.06500 1938 ft 197 kts 307°
2026-05-08 03:12 44.42753 -73.07896 1598 ft 194 kts 311°
2026-05-08 03:13 44.43564 -73.09266 1471 ft 170 kts 309°
2026-05-08 03:13 44.44309 -73.10449 1225 ft 155 kts 312°
2026-05-08 03:13 44.44974 -73.11560 955 ft 147 kts 309°
2026-05-08 03:13 44.45636 -73.12668 738 ft 150 kts 308°
2026-05-08 03:14 44.46091 -73.13395 593 ft 148 kts 310°
2026-05-08 03:14 44.46751 -73.14453 365 ft 138 kts 308°
2026-05-08 03:14 44.47327 -73.15388 335 ft 116 kts 310°
2026-05-08 03:14 44.47768 -73.16100 329 ft 72 kts 311°
2026-05-08 03:15 44.47996 -73.16466 327 ft 23 kts 311°
2026-05-08 03:15 44.48009 -73.16632 326 ft 19 kts 229°
2026-05-08 03:15 44.47902 -73.16663 325 ft 19 kts 136°
2026-05-08 03:15 44.47818 -73.16527 324 ft 18 kts 130°
2026-05-08 03:16 44.47736 -73.16397 328 ft 17 kts 135°
2026-05-08 03:16 44.47655 -73.16275 328 ft 17 kts 129°
2026-05-08 03:16 44.47583 -73.16150 327 ft 16 kts 131°
2026-05-08 03:16 44.47511 -73.16032 327 ft 16 kts 132°
2026-05-08 03:17 44.47440 -73.15923 330 ft 15 kts 132°
2026-05-08 03:17 44.47372 -73.15816 330 ft 14 kts 128°
2026-05-08 03:17 44.47309 -73.15711 328 ft 14 kts 130°
2026-05-08 03:17 44.47249 -73.15614 330 ft 13 kts 131°
2026-05-08 03:18 44.47191 -73.15518 332 ft 13 kts 130°
2026-05-08 03:18 44.47134 -73.15425 333 ft 12 kts 133°
2026-05-08 03:18 44.47066 -73.15358 334 ft 12 kts 166°
2026-05-08 03:18 44.46998 -73.15378 336 ft 5 kts 260°
2026-05-08 03:19 44.47009 -73.15406 338 ft 0 kts 307°